Regional Weather Roundup
Issued by NWS

Home | Current Version | Previous Version | Text Only | Print | Product List | Glossary On
Versions: 1 2 3 4 5 6 7 8 9 10 11 12 13 14 15 16 17 18 19 20 21 22 23 24 25 26 27 28 29 30 31 32 33 34 35 36 37 38 39 40 41 42 43 44 45 46 47 48 49 50
000
ASUS43 KDMX 190201
RWRIA

WEATHER ROUNDUP FOR IOWA
NATIONAL WEATHER SERVICE DES MOINES IA
800 PM CST SAT NOV 18 2017

NOTE: "FAIR" INDICATES FEW OR NO CLOUDS BELOW 12,000 FEET WITH NO
SIGNIFICANT WEATHER AND/OR OBSTRUCTIONS TO VISIBILITY.

* - THESE STATIONS ARE NOT NWS STATIONS...THUS NOT UNDER NWS
QUALITY CONTROL.  THEY ALSO DO NOT REPORT WEATHER SUCH
AS PRECIPITATION OR FOG.

IAZ001>003-012>014-020>022-031>034-043>046-190300-
   NORTHWEST IOWA

CITY           SKY/WX    TMP DP  RH WIND       PRES   REMARKS
CARROLL *      CLEAR     32  21  64 NW17G23   30.10R WCI  21
CHEROKEE *     CLEAR     30  18  62 NW10G21   30.12R WCI  21
DENISON *      CLEAR     30  21  69 NW13G20   30.14R WCI  20
LE MARS *      CLEAR     28  19  69 NW7       30.14R WCI  21
ORANGE CITY *  CLEAR     28  19  69 NW13      30.11R WCI  18
SHELDON *      CLEAR     28  16  59 NW13G20   30.07S WCI  18
SIOUX CITY     CLEAR     28  20  71 NW10      30.16R WCI  19
SPENCER        CLEAR     26  16  65 NW12      30.08R WCI  16
STORM LAKE *   CLEAR     28  19  69 NW14G21   30.08S WCI  17
$$

IAZ055>058-069>071-079>083-090>094-190300-
   SOUTHWEST IOWA

CITY           SKY/WX    TMP DP  RH WIND       PRES   REMARKS
ATLANTIC *     CLEAR     34  23  64 NW16      30.13R WCI  23
AUDUBON *      CLEAR     32  21  64 NW10G20   30.12R WCI  24
CLARINDA *       N/A     37  25  60 NW16G23   30.17R WCI  28
COUNCIL BLFS * CLEAR     34  25  69 NW10      30.16R WCI  26
CRESTON *      CLEAR     32  25  74 NW17      30.11R WCI  21
HARLAN  *      CLEAR     32  21  64 NW14G23   30.17R WCI  22
LAMONI         CLEAR     35  26  69 NW17      30.08R WCI  25
RED OAK *      CLEAR     36  23  60 NW12G18   30.16R WCI  27
SHENANDOAH *   CLEAR     36  27  69 NW8       30.18R WCI  29
$$

IAZ047>049-059>061-072>074-084-190300-
   CENTRAL IOWA

CITY           SKY/WX    TMP DP  RH WIND       PRES   REMARKS
AMES           CLEAR     31  22  69 NW12      30.06R WCI  22
ANKENY *       CLEAR     32  23  69 NW7G16    30.07R WCI  26
BOONE *        CLEAR     30  23  74 NW12G17   30.05R WCI  21
CHARITON *     CLEAR     36  25  64 NW16      30.05R WCI  26
DES MOINES     PTCLDY    34  23  64 NW21      30.06R WCI  22
GRINNELL*      CLEAR     31  23  73 NW21G29   30.03R WCI  18
KNOXVILLE *    CLEAR     34  21  60 NW18      30.03R WCI  23
MARSHALLTOWN   CLEAR     30  20  66 NW24G35   30.02R WCI  16
NEWTON *       CLEAR     32  21  64 NW20G29   30.04R WCI  20
PELLA *        CLEAR     33  22  62 NW18G28   30.05R WCI  22
PERRY *          N/A     32  22  65 NW14      30.08R WCI  22
$$

IAZ004>006-015-016-023>025-035-036-190300-
   NORTH CENTRAL IOWA

CITY           SKY/WX    TMP DP  RH WIND       PRES   REMARKS
ALGONA *       CLEAR     27  19  74 NW9       30.06R WCI  17
CLARION *      CLEAR     27  21  80 NW16G25   30.05R WCI  14
ESTHERVILLE    CLEAR     25  16  68 NW15      30.06R WCI  13
FORT DODGE *   CLEAR     28  21  75 NW8       30.07R WCI  20
MASON CITY     CLEAR     26  17  68 NW25G35   30.02R WCI  11
FOREST CITY *    N/A     28  19  69 NW17G25   30.03R WCI  16
WEBSTER CITY * CLEAR     28  21  74 NW17G24   30.04R WCI  16
IOWA FALLS *     N/A     30  22  70 NW23G29   30.03R WCI  17
$$

IAZ007>011-017>019-026>030-037>042-050>054-066-190300-
   NORTHEAST IOWA

CITY           SKY/WX    TMP DP  RH WIND       PRES   REMARKS
CEDAR RAPIDS   CLEAR     31  23  72 NW23G30   29.94R WCI  18
CHARLES CITY * CLEAR     28  21  74 NW21G29   29.98R WCI  15
CLINTON *      CLEAR     34  29  82 NW22      29.86R WCI  22
DECORAH *      CLOUDY    28  23  80 NW15G23   29.90R WCI  17
DUBUQUE        CLEAR     32  25  75 NW17G28   29.86R WCI  21
MONTICELLO *   MOCLDY    34  25  69 NW21G31   29.90R WCI  22
OELWEIN *      CLEAR     30  25  80 NW29      29.94R WCI  15
WATERLOO       CLEAR     29  19  66 NW20G31   29.97R WCI  16
$$

IAZ064-065-067-068-078-190300-
   EAST CENTRAL IOWA

CITY           SKY/WX    TMP DP  RH WIND       PRES   REMARKS
DAVENPORT      PTCLDY    34  28  79 NW16G23   29.90R WCI  24
IOWA CITY      MOCLDY    34  24  67 NW14G30   29.97R WCI  25
MT. PLEASANT * CLEAR     34  24  68 NW18G26   29.96R WCI  23
MUSCATINE *    PTCLDY    34  25  69 NW22G37   29.95R WCI  22
QUAD CITIES    PTCLDY    36  26  67 NW25G31   29.88R WCI  24
$$

IAZ062-063-075>077-085>089-095>099-190300-
   SOUTHEAST IOWA

CITY           SKY/WX    TMP DP  RH WIND       PRES   REMARKS
BURLINGTON     CLEAR     36  28  73 NW18G30   29.93R WCI  26
FAIRFIELD *    CLEAR     34  25  69 NW23G31   29.98R WCI  22
FORT MADISON * CLEAR     36  28  75 NW21G31   29.96R WCI  24
KEOKUK *       CLEAR     37  28  70 NW14G24   29.96R WCI  29
OSKALOOSA *      N/A     32  26  77 NW20      30.02R WCI  20
OTTUMWA        CLEAR     34  24  67 NW17G28   30.01R WCI  23
WASHINGTON *   MOCLDY    34  27  75 NW18G30   29.98R WCI  23
$$

ABBREVIATIONS USED IN REMARKS
   TC - TEMPERATURES IN CELSIUS
  WCI - WIND CHILL INDEX
   HX - HEAT INDEX
  VSB - VISIBILITY
$$





USA.gov is the U.S. government's official web portal to all federal, state and local government web resources and services.